Location: Sternwarte ZA, Rosenfeld-Brittheim
(48.2889°N, 8.6789°E)
Time: 06:52:54
(UTC+01:00)

ISS - Pass Details

Date: 03 December 2021
Orbit: 413 x 423 km, 51.6° (Epoch: 20 January)

Event Time Altitude Azimuth Distance (km) Brightness Sun altitude
Rises 18:41:02 0° 292° (WNW) 2,382 1.0 -20.6°
Reaches altitude 10° 18:43:09 10° 289° (WNW) 1,513 -0.1 -20.9°
Enters shadow 18:46:24 66° 223° (SW) 464 -3.5 -21.4°
